Location: Street
(51.1247°N, 2.7429°W)
Time: 06:45:44
(UTC+00:00)

SR - Pass Details

Date: 01 December 2020
Orbit: 575 x 880 km, 66.7° (Epoch: 25 January)

Event Time Altitude Azimuth Distance (km) Brightness Sun altitude
Rises 23:03:29 0° 315° (NW) 3,039 - -58.8°
Reaches altitude 10° 23:06:43 10° 338° (NNW) 2,188 - -59.0°
Maximum altitude 23:09:39 15° 14° (NNE) 1,905 - -59.2°
Drops below altitude 10° 23:12:42 10° 50° (NE) 2,308 - -59.4°
Sets 23:16:16 0° 73° (ENE) 3,302 - -59.6°
